Weather History for Wisconsin Rapids, WI

Change the Weather History Date:

Tuesday, November 5, 2013

  Actual Average Record
Temperature  
Mean Temperature 42 °F -  
Max Temperature 50 °F 45 °F 73 °F (1975)
Min Temperature 33 °F 27 °F 0 °F (1951)
Degree Days  
Heating Degree Days 24    
Moisture  
Dew Point 40 °F    
Average Humidity 90    
Maximum Humidity 100    
Minimum Humidity 59    
Precipitation  
Precipitation 0.74 in - - ()
Sea Level Pressure  
Sea Level Pressure 30.14 in    
Wind  
Wind Speed 4 mph (NE)    
Max Wind Speed 10 mph    
Max Gust Speed 16 mph    
Visibility 5 miles    
Events Fog , Rain    
Averages and records for this station are not official NWS values.
T = Trace of Precipitation, MM = Missing Value Source: NWS Daily Summary

Daily Weather History Graph

Daily Weather History Graph

Search for Another Location

Airport:

Trip Planner

Search our weather history database for the weather conditions in past years. The results will help you decide how hot, cold, wet, or windy it might be!

Date:

Astronomy

Nov. 05, 2013 Rise Set
Actual Time 6:42 AM CST 4:43 PM CST
Civil Twilight 6:11 AM CST 5:13 PM CST
Nautical Twilight 5:37 AM CST 5:48 PM CST
Astronomical Twilight 5:03 AM CST 6:22 PM CST
Moon 9:00 AM CST (11/5) 6:41 PM CST (11/5)
Length of Visible Light 11h 02m
Length of Day
10h 00m
Waxing Crescent, 7% of the Moon is Illuminated
Nov 5
Waxing Crescent
Nov 9
First Quarter
Nov 17
Full
Nov 25
Last Quarter
Dec 2
New

Hourly Weather History & Observations

Time (CST) Temp. Windchill Dew Point Humidity Pressure Visibility Wind Dir Wind Speed Gust Speed Precip Events Conditions
12:54 AM 44.1 °F 40.8 °F 41.0 °F 89% 30.19 in 10.0 mi NW 5.8 mph - N/A   Overcast
1:54 AM 43.0 °F 40.3 °F 39.9 °F 89% 30.20 in 10.0 mi NW 4.6 mph - N/A   Overcast
2:54 AM 39.9 °F - 39.0 °F 97% 30.22 in 5.0 mi Calm Calm - N/A   Clear
2:59 AM 39.2 °F - 37.4 °F 93% 30.20 in 1.2 mi Calm Calm - N/A   Clear
3:02 AM 37.4 °F - 35.6 °F 93% 30.20 in 0.5 mi Calm Calm - N/A Fog Fog
3:54 AM 36.0 °F - 34.0 °F 93% 30.22 in 0.2 mi Calm Calm - N/A Fog Fog
4:54 AM 34.0 °F - 34.0 °F 100% 30.26 in 0.2 mi Calm Calm - N/A Fog Fog
5:54 AM 33.1 °F - 33.1 °F 100% 30.26 in 0.2 mi Calm Calm - N/A Fog Fog
6:54 AM 33.1 °F - 32.0 °F 96% 30.27 in 0.2 mi Calm Calm - N/A Fog Fog
7:54 AM 34.0 °F - 33.1 °F 96% 30.28 in 0.2 mi Calm Calm - N/A Fog Fog
8:54 AM 39.0 °F - 37.9 °F 96% 30.27 in 0.2 mi Calm Calm - N/A Fog Fog
9:23 AM 41.0 °F - 39.2 °F 93% 30.25 in 1.2 mi Calm Calm - N/A   Mostly Cloudy
9:26 AM 42.8 °F 40.1 °F 39.2 °F 87% 30.25 in 3.0 mi SSE 4.6 mph - N/A   Mostly Cloudy
9:38 AM 44.6 °F 43.1 °F 41.0 °F 87% 30.25 in 7.0 mi South 3.5 mph - N/A   Scattered Clouds
9:54 AM 45.0 °F 42.6 °F 39.9 °F 82% 30.27 in 9.0 mi South 4.6 mph - N/A   Clear
10:54 AM 48.9 °F - 36.0 °F 61% 30.26 in 10.0 mi Calm Calm - N/A   Clear
11:54 AM 50.0 °F - 36.0 °F 59% 30.21 in 10.0 mi NNE 5.8 mph - N/A   Clear
12:54 PM 50.0 °F - 36.0 °F 59% 30.20 in 10.0 mi SE 3.5 mph - N/A   Mostly Cloudy
1:54 PM 48.9 °F - 41.0 °F 74% 30.17 in 10.0 mi Calm Calm - 0.01 in Rain Light Rain
2:05 PM 48.2 °F - 42.8 °F 82% 30.15 in 10.0 mi Calm Calm - 0.00 in Rain Light Rain
2:24 PM 48.2 °F - 42.8 °F 82% 30.14 in 9.0 mi NE 3.5 mph - 0.02 in Rain Light Rain
2:54 PM 46.9 °F - 43.0 °F 86% 30.15 in 10.0 mi NNE 5.8 mph - 0.02 in Rain Light Rain
3:54 PM 46.0 °F 41.9 °F 42.1 °F 86% 30.13 in 7.0 mi NE 8.1 mph - 0.03 in Rain Light Rain
4:54 PM 45.0 °F 40.6 °F 42.1 °F 90% 30.09 in 6.0 mi NE 8.1 mph - 0.03 in Rain Light Rain
5:09 PM 44.6 °F 41.4 °F 42.8 °F 93% 30.06 in 5.0 mi ENE 5.8 mph - 0.02 in Rain Rain
5:45 PM 44.6 °F 40.2 °F 42.8 °F 93% 30.04 in 5.0 mi ENE 8.1 mph - 0.06 in Rain Light Rain
5:54 PM 44.1 °F 39.5 °F 42.1 °F 93% 30.07 in 5.0 mi ENE 8.1 mph - 0.07 in Rain Rain
6:06 PM 44.6 °F 39.2 °F 42.8 °F 93% 30.03 in 4.0 mi ENE 10.4 mph - 0.02 in Rain Rain
6:29 PM 44.6 °F 39.2 °F 42.8 °F 93% 30.01 in 4.0 mi ENE 10.4 mph - 0.07 in Rain Rain
6:54 PM 44.1 °F 38.6 °F 42.1 °F 93% 30.03 in 4.0 mi ENE 10.4 mph - 0.13 in Rain Rain
7:54 PM 44.1 °F 39.0 °F 43.0 °F 96% 30.00 in 4.0 mi NE 9.2 mph - 0.16 in Rain Rain
8:54 PM 43.0 °F 37.7 °F 43.0 °F 100% 29.95 in 2.5 mi NE 9.2 mph - 0.08 in Rain Rain
9:08 PM 42.8 °F 37.5 °F 42.8 °F 100% 29.91 in 3.0 mi NE 9.2 mph 16.1 mph 0.02 in Rain Rain
9:54 PM 43.0 °F 38.8 °F 43.0 °F 100% 29.92 in 3.0 mi NE 6.9 mph - 0.06 in Rain Light Rain
10:54 PM 43.0 °F 38.2 °F 43.0 °F 100% 29.90 in 5.0 mi NNE 8.1 mph - 0.10 in Rain Rain
11:54 PM 42.1 °F 36.1 °F 42.1 °F 100% 29.87 in 2.0 mi NE 10.4 mph - 0.05 in Rain Rain